Wetterdaten: Donnerstag, 05.03.2015
Datum Zeit Temperatur Luftfeuchte Luftdruck Regen Wind Richtung Richtung Sonnenschein ET UV Solar Taupunkt Windchill Windben
05.03.2015 00:00 2,8 C 89 % 1029,7 hPa 0,0 l/m 10,9 km/h (2 Bft) NW 309 0 min 0,000 mm 0,0 UV-I 0 W/m 1,2 C -1,0 C 22,5 km/h (4 Bft)
05.03.2015 00:05 2,9 C 88 % 1029,7 hPa 0,0 l/m 12,0 km/h (2 Bft) W 271 0 min 0,000 mm 0,0 UV-I 0 W/m 1,1 C -1,7 C 19,3 km/h (3 Bft)
05.03.2015 00:10 2,9 C 88 % 1029,8 hPa 0,0 l/m 9,3 km/h (2 Bft) N-NW 334 0 min 0,000 mm 0,0 UV-I 0 W/m 1,1 C 0,3 C 20,9 km/h (4 Bft)
05.03.2015 00:15 2,9 C 87 % 1029,9 hPa 0,0 l/m 7,5 km/h (2 Bft) W-NW 302 0 min 0,000 mm 0,0 UV-I 0 W/m 1,0 C 1,9 C 19,3 km/h (3 Bft)
05.03.2015 00:20 3,0 C 87 % 1030,0 hPa 0,0 l/m 13,5 km/h (3 Bft) NW 304 0 min 0,000 mm 0,0 UV-I 0 W/m 1,1 C -2,5 C 32,2 km/h (5 Bft)
05.03.2015 00:25 3,1 C 86 % 1030,1 hPa 0,0 l/m 9,4 km/h (2 Bft) N-NW 342 0 min 0,000 mm 0,0 UV-I 0 W/m 1,0 C 0,4 C 37,0 km/h (5 Bft)
05.03.2015 00:30 3,1 C 86 % 1030,1 hPa 0,0 l/m 8,1 km/h (2 Bft) W 272 0 min 0,000 mm 0,0 UV-I 0 W/m 1,0 C 1,5 C 17,7 km/h (3 Bft)
05.03.2015 00:35 3,0 C 86 % 1030,2 hPa 0,0 l/m 2,1 km/h (1 Bft) W 261 0 min 0,000 mm 0,0 UV-I 0 W/m 0,9 C 3,0 C 11,3 km/h (2 Bft)
05.03.2015 00:40 2,9 C 86 % 1030,2 hPa 0,0 l/m 8,1 km/h (2 Bft) W 272 0 min 0,000 mm 0,0 UV-I 0 W/m 0,8 C 1,3 C 16,1 km/h (3 Bft)
05.03.2015 00:45 2,8 C 86 % 1030,4 hPa 0,0 l/m 6,5 km/h (2 Bft) W-NW 294 0 min 0,000 mm 0,0 UV-I 0 W/m 0,7 C 2,7 C 14,5 km/h (3 Bft)
05.03.2015 00:50 2,8 C 86 % 1030,5 hPa 0,0 l/m 6,0 km/h (2 Bft) W 279 0 min 0,000 mm 0,0 UV-I 0 W/m 0,7 C 2,8 C 19,3 km/h (3 Bft)
05.03.2015 00:55 2,8 C 86 % 1030,5 hPa 0,0 l/m 4,4 km/h (1 Bft) NW 304 0 min 0,000 mm 0,0 UV-I 0 W/m 0,7 C 2,8 C 11,3 km/h (2 Bft)
05.03.2015 01:00 2,8 C 85 % 1030,5 hPa 0,0 l/m 6,7 km/h (2 Bft) W 265 0 min 0,000 mm 0,0 UV-I 0 W/m 0,5 C 2,5 C 14,5 km/h (3 Bft)
05.03.2015 01:05 2,8 C 85 % 1030,5 hPa 0,0 l/m 7,4 km/h (2 Bft) W-SW 254 0 min 0,025 mm 0,0 UV-I 0 W/m 0,5 C 1,8 C 16,1 km/h (3 Bft)
05.03.2015 01:10 2,8 C 84 % 1030,5 hPa 0,0 l/m 8,8 km/h (2 Bft) W-SW 258 0 min 0,000 mm 0,0 UV-I 0 W/m 0,4 C 0,6 C 19,3 km/h (3 Bft)
05.03.2015 01:15 2,8 C 85 % 1030,7 hPa 0,0 l/m 9,3 km/h (2 Bft) NW 306 0 min 0,000 mm 0,0 UV-I 0 W/m 0,5 C 0,2 C 20,9 km/h (4 Bft)
05.03.2015 01:20 2,8 C 85 % 1030,7 hPa 0,0 l/m 7,6 km/h (2 Bft) W 275 0 min 0,000 mm 0,0 UV-I 0 W/m 0,5 C 1,7 C 16,1 km/h (3 Bft)
05.03.2015 01:25 2,8 C 85 % 1030,8 hPa 0,0 l/m 8,3 km/h (2 Bft) N-NW 337 0 min 0,000 mm 0,0 UV-I 0 W/m 0,5 C 1,0 C 20,9 km/h (4 Bft)
05.03.2015 01:30 2,8 C 85 % 1030,9 hPa 0,0 l/m 9,1 km/h (2 Bft) W 281 0 min 0,000 mm 0,0 UV-I 0 W/m 0,5 C 0,4 C 24,1 km/h (4 Bft)
05.03.2015 01:35 2,7 C 85 % 1031,1 hPa 0,0 l/m 4,7 km/h (1 Bft) W-NW 294 0 min 0,000 mm 0,0 UV-I 0 W/m 0,4 C 2,7 C 9,7 km/h (2 Bft)
05.03.2015 01:40 2,6 C 85 % 1031,2 hPa 0,0 l/m 5,8 km/h (2 Bft) W-SW 240 0 min 0,000 mm 0,0 UV-I 0 W/m 0,3 C 2,6 C 14,5 km/h (3 Bft)
05.03.2015 01:45 2,6 C 85 % 1031,1 hPa 0,0 l/m 5,1 km/h (1 Bft) W 280 0 min 0,000 mm 0,0 UV-I 0 W/m 0,3 C 2,6 C 11,3 km/h (2 Bft)
05.03.2015 01:50 2,5 C 85 % 1031,2 hPa 0,0 l/m 4,4 km/h (1 Bft) NW 308 0 min 0,000 mm 0,0 UV-I 0 W/m 0,2 C 2,5 C 12,9 km/h (3 Bft)
05.03.2015 01:55 2,5 C 85 % 1031,3 hPa 0,0 l/m 7,6 km/h (2 Bft) W-SW 240 0 min 0,000 mm 0,0 UV-I 0 W/m 0,2 C 1,3 C 20,9 km/h (4 Bft)
05.03.2015 02:00 2,5 C 85 % 1031,4 hPa 0,0 l/m 6,7 km/h (2 Bft) W-SW 243 0 min 0,000 mm 0,0 UV-I 0 W/m 0,2 C 2,2 C 16,1 km/h (3 Bft)
05.03.2015 02:05 2,5 C 85 % 1031,5 hPa 0,0 l/m 7,3 km/h (2 Bft) W-NW 286 0 min 0,026 mm 0,0 UV-I 0 W/m 0,2 C 1,6 C 17,7 km/h (3 Bft)
05.03.2015 02:10 2,4 C 85 % 1031,7 hPa 0,0 l/m 2,7 km/h (1 Bft) W-NW 298 0 min 0,000 mm 0,0 UV-I 0 W/m 0,1 C 2,4 C 8,0 km/h (2 Bft)
05.03.2015 02:15 2,3 C 86 % 1031,8 hPa 0,0 l/m 3,6 km/h (1 Bft) W-NW 290 0 min 0,000 mm 0,0 UV-I 0 W/m 0,2 C 2,3 C 14,5 km/h (3 Bft)
05.03.2015 02:20 2,3 C 86 % 1031,9 hPa 0,0 l/m 4,1 km/h (1 Bft) W-NW 294 0 min 0,000 mm 0,0 UV-I 0 W/m 0,2 C 2,3 C 11,3 km/h (2 Bft)
05.03.2015 02:25 2,3 C 86 % 1031,9 hPa 0,0 l/m 2,5 km/h (1 Bft) W-NW 286 0 min 0,000 mm 0,0 UV-I 0 W/m 0,2 C 2,3 C 9,7 km/h (2 Bft)
05.03.2015 02:30 2,3 C 86 % 1031,9 hPa 0,0 l/m 4,3 km/h (1 Bft) W-NW 284 0 min 0,000 mm 0,0 UV-I 0 W/m 0,2 C 2,3 C 12,9 km/h (3 Bft)
05.03.2015 02:35 2,3 C 86 % 1032,1 hPa 0,0 l/m 3,7 km/h (1 Bft) NW 315 0 min 0,000 mm 0,0 UV-I 0 W/m 0,2 C 2,3 C 9,7 km/h (2 Bft)
05.03.2015 02:40 2,4 C 86 % 1032,2 hPa 0,0 l/m 5,3 km/h (1 Bft) N 355 0 min 0,000 mm 0,0 UV-I 0 W/m 0,3 C 2,4 C 16,1 km/h (3 Bft)
05.03.2015 02:45 2,4 C 86 % 1032,4 hPa 0,0 l/m 0,6 km/h (0 Bft) S-SW 194 0 min 0,000 mm 0,0 UV-I 0 W/m 0,3 C 2,4 C 6,4 km/h (2 Bft)
05.03.2015 02:50 2,4 C 86 % 1032,5 hPa 0,0 l/m 0,0 km/h (0 Bft) SO 125 0 min 0,000 mm 0,0 UV-I 0 W/m 0,3 C 2,4 C 1,6 km/h (1 Bft)
05.03.2015 02:55 2,4 C 86 % 1032,5 hPa 0,0 l/m 0,2 km/h (0 Bft) O-SO 115 0 min 0,000 mm 0,0 UV-I 0 W/m 0,3 C 2,4 C 1,6 km/h (1 Bft)
05.03.2015 03:00 2,4 C 86 % 1032,5 hPa 0,0 l/m 0,0 km/h (0 Bft) O-SO 115 0 min 0,000 mm 0,0 UV-I 0 W/m 0,3 C 2,4 C 0,0 km/h (0 Bft)
05.03.2015 03:05 2,2 C 86 % 1032,7 hPa 0,0 l/m 0,1 km/h (0 Bft) W-NW 283 0 min 0,000 mm 0,0 UV-I 0 W/m 0,1 C 2,2 C 1,6 km/h (1 Bft)
05.03.2015 03:10 2,1 C 86 % 1032,8 hPa 0,0 l/m 0,3 km/h (0 Bft) S-SW 212 0 min 0,000 mm 0,0 UV-I 0 W/m 0,0 C 2,1 C 3,2 km/h (1 Bft)
05.03.2015 03:15 2,1 C 86 % 1032,8 hPa 0,0 l/m 0,4 km/h (0 Bft) W 263 0 min 0,000 mm 0,0 UV-I 0 W/m 0,0 C 2,1 C 4,8 km/h (1 Bft)
05.03.2015 03:20 2,0 C 86 % 1032,8 hPa 0,0 l/m 0,1 km/h (0 Bft) W 271 0 min 0,000 mm 0,0 UV-I 0 W/m -0,1 C 2,0 C 1,6 km/h (1 Bft)
05.03.2015 03:25 2,0 C 86 % 1032,7 hPa 0,0 l/m 0,2 km/h (0 Bft) W 277 0 min 0,000 mm 0,0 UV-I 0 W/m -0,1 C 2,0 C 3,2 km/h (1 Bft)
05.03.2015 03:30 1,9 C 86 % 1032,8 hPa 0,0 l/m 0,5 km/h (0 Bft) SW 236 0 min 0,000 mm 0,0 UV-I 0 W/m -0,2 C 1,9 C 3,2 km/h (1 Bft)
05.03.2015 03:35 1,9 C 86 % 1032,9 hPa 0,0 l/m 1,0 km/h (0 Bft) W 271 0 min 0,000 mm 0,0 UV-I 0 W/m -0,2 C 1,9 C 4,8 km/h (1 Bft)
05.03.2015 03:40 1,8 C 86 % 1033,0 hPa 0,0 l/m 0,3 km/h (0 Bft) W 271 0 min 0,000 mm 0,0 UV-I 0 W/m -0,3 C 1,8 C 3,2 km/h (1 Bft)
05.03.2015 03:45 1,7 C 87 % 1033,2 hPa 0,0 l/m 0,6 km/h (0 Bft) W-SW 240 0 min 0,000 mm 0,0 UV-I 0 W/m -0,2 C 1,7 C 4,8 km/h (1 Bft)
05.03.2015 03:50 1,7 C 87 % 1033,2 hPa 0,0 l/m 0,4 km/h (0 Bft) W 259 0 min 0,000 mm 0,0 UV-I 0 W/m -0,2 C 1,7 C 3,2 km/h (1 Bft)
05.03.2015 03:55 1,7 C 88 % 1033,3 hPa 0,0 l/m 0,1 km/h (0 Bft) W 259 0 min 0,000 mm 0,0 UV-I 0 W/m -0,1 C 1,7 C 1,6 km/h (1 Bft)
05.03.2015 04:00 1,7 C 88 % 1033,3 hPa 0,0 l/m 0,0 km/h (0 Bft) W 259 0 min 0,000 mm 0,0 UV-I 0 W/m -0,1 C 1,7 C 0,0 km/h (0 Bft)
05.03.2015 04:05 1,7 C 88 % 1033,4 hPa 0,0 l/m 1,0 km/h (0 Bft) W-NW 285 0 min 0,000 mm 0,0 UV-I 0 W/m -0,1 C 1,7 C 4,8 km/h (1 Bft)
05.03.2015 04:10 1,6 C 88 % 1033,5 hPa 0,0 l/m 0,5 km/h (0 Bft) W-NW 286 0 min 0,000 mm 0,0 UV-I 0 W/m -0,2 C 1,6 C 3,2 km/h (1 Bft)
05.03.2015 04:15 1,7 C 87 % 1033,5 hPa 0,0 l/m 0,3 km/h (0 Bft) W-NW 286 0 min 0,000 mm 0,0 UV-I 0 W/m -0,2 C 1,7 C 3,2 km/h (1 Bft)
05.03.2015 04:20 1,7 C 87 % 1033,6 hPa 0,0 l/m 1,1 km/h (1 Bft) W-NW 288 0 min 0,000 mm 0,0 UV-I 0 W/m -0,2 C 1,7 C 4,8 km/h (1 Bft)
05.03.2015 04:25 1,8 C 87 % 1033,6 hPa 0,0 l/m 1,2 km/h (1 Bft) W 259 0 min 0,000 mm 0,0 UV-I 0 W/m -0,1 C 1,8 C 4,8 km/h (1 Bft)
05.03.2015 04:30 1,8 C 87 % 1033,7 hPa 0,0 l/m 0,1 km/h (0 Bft) W 259 0 min 0,000 mm 0,0 UV-I 0 W/m -0,1 C 1,8 C 1,6 km/h (1 Bft)
05.03.2015 04:35 1,7 C 87 % 1033,7 hPa 0,0 l/m 0,0 km/h (0 Bft) W 259 0 min 0,000 mm 0,0 UV-I 0 W/m -0,2 C 1,7 C 1,6 km/h (1 Bft)
05.03.2015 04:40 1,7 C 87 % 1033,8 hPa 0,0 l/m 1,2 km/h (1 Bft) W-SW 239 0 min 0,000 mm 0,0 UV-I 0 W/m -0,2 C 1,7 C 4,8 km/h (1 Bft)
05.03.2015 04:45 1,7 C 87 % 1033,9 hPa 0,0 l/m 0,2 km/h (0 Bft) W-SW 242 0 min 0,000 mm 0,0 UV-I 0 W/m -0,2 C 1,7 C 3,2 km/h (1 Bft)
05.03.2015 04:50 1,7 C 88 % 1034,0 hPa 0,0 l/m 0,4 km/h (0 Bft) W-SW 242 0 min 0,000 mm 0,0 UV-I 0 W/m -0,1 C 1,7 C 3,2 km/h (1 Bft)
05.03.2015 04:55 1,6 C 88 % 1034,0 hPa 0,0 l/m 1,1 km/h (1 Bft) W-NW 293 0 min 0,000 mm 0,0 UV-I 0 W/m -0,2 C 1,6 C 4,8 km/h (1 Bft)
05.03.2015 05:00 1,7 C 88 % 1034,0 hPa 0,0 l/m 1,0 km/h (0 Bft) W-NW 284 0 min 0,000 mm 0,0 UV-I 0 W/m -0,1 C 1,7 C 4,8 km/h (1 Bft)
05.03.2015 05:05 1,7 C 88 % 1034,0 hPa 0,0 l/m 1,9 km/h (1 Bft) W-SW 244 0 min 0,000 mm 0,0 UV-I 0 W/m -0,1 C 1,7 C 8,0 km/h (2 Bft)
05.03.2015 05:10 1,7 C 88 % 1034,0 hPa 0,0 l/m 1,7 km/h (1 Bft) W-SW 253 0 min 0,000 mm 0,0 UV-I 0 W/m -0,1 C 1,7 C 6,4 km/h (2 Bft)
05.03.2015 05:15 1,8 C 88 % 1034,1 hPa 0,0 l/m 1,0 km/h (0 Bft) W-SW 256 0 min 0,000 mm 0,0 UV-I 0 W/m 0,0 C 1,8 C 6,4 km/h (2 Bft)
05.03.2015 05:20 1,8 C 87 % 1034,2 hPa 0,0 l/m 0,9 km/h (0 Bft) W 275 0 min 0,000 mm 0,0 UV-I 0 W/m -0,1 C 1,8 C 4,8 km/h (1 Bft)
05.03.2015 05:25 1,8 C 87 % 1034,3 hPa 0,0 l/m 0,3 km/h (0 Bft) W 279 0 min 0,000 mm 0,0 UV-I 0 W/m -0,1 C 1,8 C 3,2 km/h (1 Bft)
05.03.2015 05:30 1,9 C 86 % 1034,3 hPa 0,0 l/m 0,2 km/h (0 Bft) W 279 0 min 0,000 mm 0,0 UV-I 0 W/m -0,2 C 1,9 C 3,2 km/h (1 Bft)
05.03.2015 05:35 1,8 C 86 % 1034,4 hPa 0,0 l/m 0,2 km/h (0 Bft) W 279 0 min 0,000 mm 0,0 UV-I 0 W/m -0,3 C 1,8 C 3,2 km/h (1 Bft)
05.03.2015 05:40 1,8 C 85 % 1034,5 hPa 0,0 l/m 0,4 km/h (0 Bft) W 279 0 min 0,000 mm 0,0 UV-I 0 W/m -0,4 C 1,8 C 4,8 km/h (1 Bft)
05.03.2015 05:45 1,8 C 85 % 1034,5 hPa 0,0 l/m 1,5 km/h (1 Bft) W 264 0 min 0,000 mm 0,0 UV-I 0 W/m -0,4 C 1,8 C 6,4 km/h (2 Bft)
05.03.2015 05:50 1,9 C 84 % 1034,6 hPa 0,0 l/m 0,6 km/h (0 Bft) W 281 0 min 0,000 mm 0,0 UV-I 0 W/m -0,5 C 1,9 C 6,4 km/h (2 Bft)
05.03.2015 05:55 1,9 C 85 % 1034,6 hPa 0,0 l/m 1,6 km/h (1 Bft) NW 307 0 min 0,000 mm 0,0 UV-I 0 W/m -0,3 C 1,9 C 6,4 km/h (2 Bft)
05.03.2015 06:00 1,8 C 85 % 1034,6 hPa 0,0 l/m 0,8 km/h (0 Bft) W 265 0 min 0,000 mm 0,0 UV-I 0 W/m -0,4 C 1,8 C 6,4 km/h (2 Bft)
05.03.2015 06:05 1,8 C 85 % 1034,6 hPa 0,0 l/m 1,6 km/h (1 Bft) W 269 0 min 0,000 mm 0,0 UV-I 0 W/m -0,4 C 1,8 C 6,4 km/h (2 Bft)
05.03.2015 06:10 1,9 C 85 % 1034,7 hPa 0,0 l/m 0,1 km/h (0 Bft) W 269 0 min 0,000 mm 0,0 UV-I 0 W/m -0,3 C 1,9 C 1,6 km/h (1 Bft)
05.03.2015 06:15 1,9 C 84 % 1034,8 hPa 0,0 l/m 0,3 km/h (0 Bft) W 269 0 min 0,000 mm 0,0 UV-I 0 W/m -0,5 C 1,9 C 3,2 km/h (1 Bft)
05.03.2015 06:20 1,8 C 84 % 1034,9 hPa 0,0 l/m 0,5 km/h (0 Bft) W 269 0 min 0,000 mm 0,0 UV-I 0 W/m -0,6 C 1,8 C 4,8 km/h (1 Bft)
05.03.2015 06:25 1,8 C 85 % 1035,0 hPa 0,0 l/m 0,0 km/h (0 Bft) W 269 0 min 0,000 mm 0,0 UV-I 0 W/m -0,4 C 1,8 C 1,6 km/h (1 Bft)
05.03.2015 06:30 1,8 C 85 % 1034,9 hPa 0,0 l/m 0,0 km/h (0 Bft) W 269 0 min 0,000 mm 0,0 UV-I 0 W/m -0,4 C 1,8 C 1,6 km/h (1 Bft)
05.03.2015 06:35 1,8 C 84 % 1035,0 hPa 0,0 l/m 0,3 km/h (0 Bft) W 269 0 min 0,000 mm 0,0 UV-I 0 W/m -0,6 C 1,8 C 3,2 km/h (1 Bft)
05.03.2015 06:40 1,7 C 84 % 1035,1 hPa 0,0 l/m 0,0 km/h (0 Bft) W 269 0 min 0,000 mm 0,0 UV-I 0 W/m -0,7 C 1,7 C 0,0 km/h (0 Bft)
05.03.2015 06:45 1,7 C 85 % 1035,0 hPa 0,0 l/m 0,0 km/h (0 Bft) W 269 0 min 0,000 mm 0,0 UV-I 0 W/m -0,5 C 1,7 C 0,0 km/h (0 Bft)
05.03.2015 06:50 1,6 C 85 % 1035,0 hPa 0,0 l/m 0,0 km/h (0 Bft) W 269 0 min 0,000 mm 0,0 UV-I 0 W/m -0,6 C 1,6 C 0,0 km/h (0 Bft)
05.03.2015 06:55 1,5 C 86 % 1035,1 hPa 0,0 l/m 0,6 km/h (0 Bft) W 269 0 min 0,000 mm 0,0 UV-I 0 W/m -0,6 C 1,5 C 3,2 km/h (1 Bft)
05.03.2015 07:00 1,3 C 85 % 1035,2 hPa 0,0 l/m 0,1 km/h (0 Bft) W 269 0 min 0,000 mm 0,0 UV-I 0 W/m -0,9 C 1,3 C 1,6 km/h (1 Bft)
05.03.2015 07:05 1,1 C 86 % 1035,3 hPa 0,0 l/m 0,2 km/h (0 Bft) W 269 0 min 0,000 mm 0,0 UV-I 1 W/m -1,0 C 1,1 C 3,2 km/h (1 Bft)
05.03.2015 07:09 0,9 C 86 % 1035,3 hPa 0,0 l/m 0,0 km/h (0 Bft) W 269 0 min 0,000 mm 0,0 UV-I 5 W/m -1,2 C 0,9 C 1,6 km/h (1 Bft)
05.03.2015 07:10 0,9 C 86 % 1035,3 hPa 0,0 l/m 0,2 km/h (0 Bft) W 269 0 min 0,000 mm 0,0 UV-I 6 W/m -1,2 C 0,9 C 1,6 km/h (1 Bft)
05.03.2015 07:15 0,8 C 87 % 1035,3 hPa 0,0 l/m 0,0 km/h (0 Bft) W 269 0 min 0,000 mm 0,0 UV-I 8 W/m -1,1 C 0,8 C 0,0 km/h (0 Bft)
05.03.2015 07:20 0,8 C 87 % 1035,4 hPa 0,0 l/m 0,4 km/h (0 Bft) W-NW 299 0 min 0,000 mm 0,0 UV-I 12 W/m -1,1 C 0,8 C 6,4 km/h (2 Bft)
05.03.2015 07:25 0,8 C 88 % 1035,4 hPa 0,0 l/m 1,6 km/h (1 Bft) NW 304 0 min 0,000 mm 0,0 UV-I 14 W/m -1,0 C 0,8 C 6,4 km/h (2 Bft)
05.03.2015 07:30 0,9 C 87 % 1035,4 hPa 0,0 l/m 0,5 km/h (0 Bft) W-NW 294 0 min 0,000 mm 0,0 UV-I 16 W/m -1,0 C 0,9 C 6,4 km/h (2 Bft)
05.03.2015 07:35 0,9 C 87 % 1035,5 hPa 0,0 l/m 0,0 km/h (0 Bft) W-NW 294 0 min 0,000 mm 0,0 UV-I 24 W/m -1,0 C 0,9 C 1,6 km/h (1 Bft)
05.03.2015 07:40 1,0 C 88 % 1035,6 hPa 0,0 l/m 0,1 km/h (0 Bft) W-NW 294 0 min 0,000 mm 0,0 UV-I 42 W/m -0,8 C 1,0 C 1,6 km/h (1 Bft)
05.03.2015 07:45 1,1 C 88 % 1035,6 hPa 0,0 l/m 0,0 km/h (0 Bft) W-NW 294 0 min 0,000 mm 0,0 UV-I 23 W/m -0,7 C 1,1 C 0,0 km/h (0 Bft)
05.03.2015 07:50 1,2 C 88 % 1035,6 hPa 0,0 l/m 0,0 km/h (0 Bft) W-NW 294 0 min 0,000 mm 0,0 UV-I 44 W/m -0,6 C 1,2 C 0,0 km/h (0 Bft)
05.03.2015 07:55 1,3 C 87 % 1035,6 hPa 0,0 l/m 0,0 km/h (0 Bft) W-NW 294 0 min 0,000 mm 0,0 UV-I 31 W/m -0,6 C 1,3 C 1,6 km/h (1 Bft)
05.03.2015 08:00 1,4 C 87 % 1035,8 hPa 0,0 l/m 0,0 km/h (0 Bft) W-NW 294 0 min 0,000 mm 0,0 UV-I 22 W/m -0,5 C 1,4 C 0,0 km/h (0 Bft)
05.03.2015 08:05 1,4 C 87 % 1035,7 hPa 0,0 l/m 0,1 km/h (0 Bft) W-NW 294 0 min 0,000 mm 0,0 UV-I 29 W/m -0,5 C 1,4 C 1,6 km/h (1 Bft)
05.03.2015 08:10 1,4 C 87 % 1035,8 hPa 0,0 l/m 0,0 km/h (0 Bft) W-NW 294 0 min 0,000 mm 0,0 UV-I 33 W/m -0,5 C 1,4 C 1,6 km/h (1 Bft)
05.03.2015 08:15 1,4 C 87 % 1035,8 hPa 0,0 l/m 0,0 km/h (0 Bft) W-NW 294 0 min 0,000 mm 0,0 UV-I 87 W/m -0,5 C 1,4 C 0,0 km/h (0 Bft)
05.03.2015 08:20 1,5 C 87 % 1035,9 hPa 0,0 l/m 0,0 km/h (0 Bft) W-NW 294 5 min 0,000 mm 0,0 UV-I 119 W/m -0,4 C 1,5 C 0,0 km/h (0 Bft)
05.03.2015 08:25 1,6 C 87 % 1036,0 hPa 0,0 l/m 0,0 km/h (0 Bft) W-NW 294 0 min 0,000 mm 0,0 UV-I 76 W/m -0,3 C 1,6 C 1,6 km/h (1 Bft)
05.03.2015 08:30 1,7 C 87 % 1036,1 hPa 0,0 l/m 0,0 km/h (0 Bft) W-NW 294 0 min 0,000 mm 0,0 UV-I 68 W/m -0,2 C 1,7 C 0,0 km/h (0 Bft)
05.03.2015 08:35 1,8 C 87 % 1036,1 hPa 0,0 l/m 0,3 km/h (0 Bft) W-NW 294 0 min 0,000 mm 0,0 UV-I 94 W/m -0,1 C 1,8 C 3,2 km/h (1 Bft)
05.03.2015 08:40 1,8 C 87 % 1036,1 hPa 0,0 l/m 0,3 km/h (0 Bft) W-SW 238 0 min 0,000 mm 0,0 UV-I 114 W/m -0,1 C 1,8 C 4,8 km/h (1 Bft)
05.03.2015 08:45 1,8 C 87 % 1036,2 hPa 0,0 l/m 0,7 km/h (0 Bft) W 263 0 min 0,000 mm 0,4 UV-I 95 W/m -0,1 C 1,8 C 3,2 km/h (1 Bft)
05.03.2015 08:50 2,1 C 87 % 1036,2 hPa 0,0 l/m 1,3 km/h (1 Bft) SW 225 5 min 0,000 mm 0,5 UV-I 226 W/m 0,2 C 2,1 C 4,8 km/h (1 Bft)
05.03.2015 08:55 2,5 C 86 % 1036,3 hPa 0,0 l/m 0,9 km/h (0 Bft) W 276 5 min 0,000 mm 0,5 UV-I 226 W/m 0,4 C 2,5 C 4,8 km/h (1 Bft)
05.03.2015 09:00 2,6 C 85 % 1036,3 hPa 0,0 l/m 3,2 km/h (1 Bft) W-SW 242 5 min 0,051 mm 0,5 UV-I 236 W/m 0,3 C 2,6 C 8,0 km/h (2 Bft)
05.03.2015 09:05 2,8 C 85 % 1036,3 hPa 0,0 l/m 4,3 km/h (1 Bft) W-NW 282 5 min 0,000 mm 0,6 UV-I 254 W/m 0,5 C 2,8 C 8,0 km/h (2 Bft)
05.03.2015 09:10 3,2 C 84 % 1036,3 hPa 0,0 l/m 4,8 km/h (1 Bft) W-NW 291 5 min 0,000 mm 0,6 UV-I 275 W/m 0,8 C 3,2 C 9,7 km/h (2 Bft)
05.03.2015 09:15 3,9 C 83 % 1036,2 hPa 0,0 l/m 2,2 km/h (1 Bft) W-NW 293 5 min 0,000 mm 0,6 UV-I 276 W/m 1,3 C 3,9 C 12,9 km/h (3 Bft)
05.03.2015 09:20 3,8 C 82 % 1036,3 hPa 0,0 l/m 3,6 km/h (1 Bft) NW 312 0 min 0,000 mm 0,6 UV-I 179 W/m 1,0 C 3,8 C 9,7 km/h (2 Bft)
05.03.2015 09:25 3,8 C 82 % 1036,3 hPa 0,0 l/m 4,2 km/h (1 Bft) NW 316 0 min 0,000 mm 0,6 UV-I 136 W/m 1,0 C 3,8 C 12,9 km/h (3 Bft)
05.03.2015 09:30 3,7 C 81 % 1036,3 hPa 0,0 l/m 2,6 km/h (1 Bft) N 355 0 min 0,000 mm 0,6 UV-I 100 W/m 0,7 C 3,7 C 8,0 km/h (2 Bft)
05.03.2015 09:35 3,6 C 81 % 1036,3 hPa 0,0 l/m 1,7 km/h (1 Bft) W-NW 302 0 min 0,000 mm 0,7 UV-I 106 W/m 0,7 C 3,6 C 6,4 km/h (2 Bft)
05.03.2015 09:40 3,6 C 82 % 1036,4 hPa 0,0 l/m 0,2 km/h (0 Bft) NW 304 0 min 0,000 mm 0,7 UV-I 77 W/m 0,8 C 3,6 C 3,2 km/h (1 Bft)
05.03.2015 09:45 3,6 C 81 % 1036,6 hPa 0,0 l/m 2,7 km/h (1 Bft) NW 306 0 min 0,000 mm 0,7 UV-I 121 W/m 0,7 C 3,6 C 8,0 km/h (2 Bft)
05.03.2015 09:50 3,7 C 82 % 1036,7 hPa 0,0 l/m 2,4 km/h (1 Bft) W-NW 286 0 min 0,000 mm 0,7 UV-I 130 W/m 0,9 C 3,7 C 9,7 km/h (2 Bft)
05.03.2015 09:55 3,8 C 81 % 1036,7 hPa 0,0 l/m 2,3 km/h (1 Bft) W-NW 298 0 min 0,000 mm 0,7 UV-I 151 W/m 0,8 C 3,8 C 11,3 km/h (2 Bft)
05.03.2015 10:00 4,0 C 80 % 1036,8 hPa 0,0 l/m 3,0 km/h (1 Bft) N-NO 21 0 min 0,076 mm 0,7 UV-I 188 W/m 0,9 C 4,0 C 9,7 km/h (2 Bft)
05.03.2015 10:05 4,2 C 79 % 1036,8 hPa 0,0 l/m 5,2 km/h (1 Bft) W-NW 286 0 min 0,000 mm 0,8 UV-I 214 W/m 0,9 C 4,2 C 14,5 km/h (3 Bft)
05.03.2015 10:10 4,4 C 80 % 1036,8 hPa 0,0 l/m 3,2 km/h (1 Bft) N-NO 15 0 min 0,000 mm 0,8 UV-I 206 W/m 1,3 C 4,4 C 9,7 km/h (2 Bft)
05.03.2015 10:15 4,8 C 78 % 1036,8 hPa 0,0 l/m 1,6 km/h (1 Bft) N-NW 333 0 min 0,000 mm 0,9 UV-I 230 W/m 1,3 C 4,8 C 9,7 km/h (2 Bft)
05.03.2015 10:20 5,2 C 76 % 1036,7 hPa 0,0 l/m 1,9 km/h (1 Bft) NW 309 5 min 0,000 mm 0,9 UV-I 252 W/m 1,3 C 5,2 C 12,9 km/h (3 Bft)
05.03.2015 10:25 5,2 C 76 % 1036,7 hPa 0,0 l/m 5,0 km/h (1 Bft) W-NW 298 0 min 0,000 mm 0,8 UV-I 232 W/m 1,3 C 5,2 C 12,9 km/h (3 Bft)
05.03.2015 10:30 5,1 C 75 % 1036,8 hPa 0,0 l/m 4,2 km/h (1 Bft) W-NW 291 0 min 0,000 mm 0,8 UV-I 185 W/m 1,0 C 5,1 C 12,9 km/h (3 Bft)
05.03.2015 10:35 4,8 C 75 % 1036,8 hPa 0,0 l/m 4,4 km/h (1 Bft) NW 307 0 min 0,000 mm 0,8 UV-I 167 W/m 0,8 C 4,8 C 17,7 km/h (3 Bft)
05.03.2015 10:40 4,9 C 73 % 1036,8 hPa 0,0 l/m 4,6 km/h (1 Bft) W 261 0 min 0,000 mm 0,9 UV-I 224 W/m 0,5 C 4,9 C 12,9 km/h (3 Bft)
05.03.2015 10:45 5,1 C 73 % 1036,8 hPa 0,0 l/m 1,5 km/h (1 Bft) N-NW 340 0 min 0,000 mm 1,1 UV-I 245 W/m 0,7 C 5,1 C 6,4 km/h (2 Bft)
05.03.2015 10:50 5,5 C 74 % 1036,9 hPa 0,0 l/m 3,7 km/h (1 Bft) N-NW 338 5 min 0,000 mm 1,1 UV-I 322 W/m 1,2 C 5,5 C 14,5 km/h (3 Bft)
05.03.2015 10:55 5,8 C 73 % 1036,7 hPa 0,0 l/m 3,5 km/h (1 Bft) W-NW 301 5 min 0,000 mm 1,1 UV-I 309 W/m 1,3 C 5,8 C 12,9 km/h (3 Bft)
05.03.2015 11:00 5,7 C 73 % 1036,7 hPa 0,0 l/m 4,4 km/h (1 Bft) NW 311 5 min 0,101 mm 1,2 UV-I 304 W/m 1,2 C 5,7 C 14,5 km/h (3 Bft)
05.03.2015 11:05 5,9 C 73 % 1036,8 hPa 0,0 l/m 6,0 km/h (2 Bft) N-NW 333 5 min 0,000 mm 1,3 UV-I 469 W/m 1,4 C 5,9 C 17,7 km/h (3 Bft)
05.03.2015 11:10 6,4 C 71 % 1036,7 hPa 0,0 l/m 3,6 km/h (1 Bft) N-NW 339 5 min 0,000 mm 1,5 UV-I 514 W/m 1,5 C 6,4 C 12,9 km/h (3 Bft)
05.03.2015 11:15 6,4 C 69 % 1036,8 hPa 0,0 l/m 7,4 km/h (2 Bft) N-NO 20 5 min 0,000 mm 1,5 UV-I 551 W/m 1,1 C 5,6 C 14,5 km/h (3 Bft)
05.03.2015 11:20 6,7 C 68 % 1036,7 hPa 0,0 l/m 4,5 km/h (1 Bft) N 5 5 min 0,000 mm 1,5 UV-I 450 W/m 1,2 C 6,7 C 14,5 km/h (3 Bft)
05.03.2015 11:25 7,0 C 68 % 1036,7 hPa 0,0 l/m 4,7 km/h (1 Bft) NW 326 5 min 0,000 mm 1,4 UV-I 389 W/m 1,5 C 7,0 C 12,9 km/h (3 Bft)
05.03.2015 11:30 6,7 C 66 % 1036,7 hPa 0,0 l/m 6,0 km/h (2 Bft) N-NW 338 0 min 0,000 mm 1,3 UV-I 259 W/m 0,8 C 6,7 C 16,1 km/h (3 Bft)
05.03.2015 11:35 6,9 C 68 % 1036,7 hPa 0,0 l/m 6,1 km/h (2 Bft) NW 306 5 min 0,000 mm 1,5 UV-I 616 W/m 1,4 C 6,9 C 17,7 km/h (3 Bft)
05.03.2015 11:40 7,2 C 66 % 1036,7 hPa 0,0 l/m 6,7 km/h (2 Bft) W 276 5 min 0,000 mm 1,6 UV-I 588 W/m 1,3 C 7,0 C 16,1 km/h (3 Bft)
05.03.2015 11:45 6,7 C 66 % 1036,7 hPa 0,0 l/m 8,5 km/h (2 Bft) W-NW 296 5 min 0,000 mm 1,4 UV-I 368 W/m 0,8 C 5,0 C 14,5 km/h (3 Bft)
05.03.2015 11:50 6,7 C 67 % 1036,7 hPa 0,0 l/m 5,1 km/h (1 Bft) W-NW 299 5 min 0,000 mm 1,4 UV-I 511 W/m 1,0 C 6,7 C 12,9 km/h (3 Bft)
05.03.2015 11:55 6,9 C 67 % 1036,8 hPa 0,0 l/m 5,7 km/h (1 Bft) N 5 5 min 0,000 mm 1,4 UV-I 354 W/m 1,2 C 6,9 C 16,1 km/h (3 Bft)
05.03.2015 12:00 6,9 C 65 % 1036,8 hPa 0,0 l/m 7,6 km/h (2 Bft) NW 309 5 min 0,204 mm 1,8 UV-I 444 W/m 0,8 C 5,9 C 17,7 km/h (3 Bft)
05.03.2015 12:05 6,7 C 68 % 1036,7 hPa 0,0 l/m 5,6 km/h (1 Bft) W-NW 294 5 min 0,000 mm 1,9 UV-I 345 W/m 1,2 C 6,7 C 19,3 km/h (3 Bft)
05.03.2015 12:10 6,7 C 68 % 1036,7 hPa 0,0 l/m 5,0 km/h (1 Bft) W-NW 297 5 min 0,000 mm 1,3 UV-I 336 W/m 1,2 C 6,7 C 11,3 km/h (2 Bft)
05.03.2015 12:15 6,9 C 67 % 1036,8 hPa 0,0 l/m 2,9 km/h (1 Bft) W 273 0 min 0,000 mm 1,3 UV-I 263 W/m 1,2 C 6,9 C 9,7 km/h (2 Bft)
05.03.2015 12:20 6,7 C 66 % 1036,9 hPa 0,0 l/m 5,9 km/h (2 Bft) W 265 0 min 0,000 mm 1,1 UV-I 257 W/m 0,8 C 6,7 C 16,1 km/h (3 Bft)
05.03.2015 12:25 6,2 C 68 % 1037,0 hPa 0,0 l/m 6,7 km/h (2 Bft) W-NW 289 0 min 0,000 mm 1,1 UV-I 224 W/m 0,7 C 6,0 C 16,1 km/h (3 Bft)
05.03.2015 12:30 6,1 C 70 % 1037,1 hPa 0,0 l/m 6,1 km/h (2 Bft) NW 323 0 min 0,000 mm 1,2 UV-I 274 W/m 1,0 C 6,1 C 16,1 km/h (3 Bft)
05.03.2015 12:35 6,7 C 65 % 1037,0 hPa 0,0 l/m 5,4 km/h (1 Bft) W-NW 297 5 min 0,000 mm 1,3 UV-I 346 W/m 0,6 C 6,7 C 12,9 km/h (3 Bft)
05.03.2015 12:40 7,2 C 66 % 1036,9 hPa 0,0 l/m 2,7 km/h (1 Bft) NW 315 5 min 0,000 mm 1,4 UV-I 310 W/m 1,3 C 7,2 C 8,0 km/h (2 Bft)
05.03.2015 12:45 7,4 C 66 % 1036,9 hPa 0,0 l/m 2,5 km/h (1 Bft) NO 40 0 min 0,000 mm 1,2 UV-I 246 W/m 1,5 C 7,4 C 8,0 km/h (2 Bft)
05.03.2015 12:50 7,3 C 65 % 1036,8 hPa 0,0 l/m 0,5 km/h (0 Bft) NW 310 0 min 0,000 mm 1,1 UV-I 224 W/m 1,2 C 7,3 C 4,8 km/h (1 Bft)
05.03.2015 12:55 6,9 C 64 % 1036,8 hPa 0,0 l/m 3,6 km/h (1 Bft) W-NW 299 0 min 0,000 mm 1,1 UV-I 233 W/m 0,6 C 6,9 C 9,7 km/h (2 Bft)
05.03.2015 13:00 7,0 C 67 % 1036,8 hPa 0,0 l/m 0,5 km/h (0 Bft) NW 306 0 min 0,127 mm 0,8 UV-I 168 W/m 1,3 C 7,0 C 4,8 km/h (1 Bft)
05.03.2015 13:05 7,0 C 65 % 1036,8 hPa 0,0 l/m 3,2 km/h (1 Bft) NW 313 0 min 0,000 mm 0,9 UV-I 177 W/m 0,9 C 7,0 C 11,3 km/h (2 Bft)
05.03.2015 13:10 7,0 C 66 % 1036,9 hPa 0,0 l/m 2,2 km/h (1 Bft) W-NW 294 0 min 0,000 mm 0,8 UV-I 152 W/m 1,1 C 7,0 C 8,0 km/h (2 Bft)
05.03.2015 13:15 6,8 C 65 % 1036,8 hPa 0,0 l/m 4,2 km/h (1 Bft) W-SW 254 0 min 0,000 mm 0,8 UV-I 164 W/m 0,7 C 6,8 C 11,3 km/h (2 Bft)
05.03.2015 13:20 6,4 C 66 % 1036,8 hPa 0,0 l/m 7,2 km/h (2 Bft) N-NW 330 0 min 0,000 mm 1,1 UV-I 241 W/m 0,5 C 5,7 C 16,1 km/h (3 Bft)
05.03.2015 13:25 6,6 C 67 % 1036,7 hPa 0,0 l/m 1,4 km/h (1 Bft) NW 317 0 min 0,000 mm 1,2 UV-I 257 W/m 0,9 C 6,6 C 8,0 km/h (2 Bft)
05.03.2015 13:30 6,5 C 67 % 1036,7 hPa 0,0 l/m 3,1 km/h (1 Bft) W-NW 291 0 min 0,000 mm 1,3 UV-I 285 W/m 0,8 C 6,5 C 9,7 km/h (2 Bft)
05.03.2015 13:35 6,9 C 67 % 1036,6 hPa 0,0 l/m 1,3 km/h (1 Bft) NW 305 0 min 0,000 mm 1,3 UV-I 290 W/m 1,2 C 6,9 C 6,4 km/h (2 Bft)
05.03.2015 13:40 7,2 C 64 % 1036,6 hPa 0,0 l/m 1,1 km/h (1 Bft) NW 306 0 min 0,000 mm 1,1 UV-I 268 W/m 0,9 C 7,2 C 6,4 km/h (2 Bft)
05.03.2015 13:45 7,6 C 66 % 1036,7 hPa 0,0 l/m 1,7 km/h (1 Bft) N 360 5 min 0,000 mm 1,2 UV-I 294 W/m 1,7 C 7,6 C 6,4 km/h (2 Bft)
05.03.2015 13:50 7,6 C 63 % 1036,6 hPa 0,0 l/m 4,9 km/h (1 Bft) W-NW 292 5 min 0,000 mm 1,3 UV-I 302 W/m 1,0 C 7,6 C 12,9 km/h (3 Bft)
05.03.2015 13:55 7,2 C 65 % 1036,6 hPa 0,0 l/m 5,5 km/h (1 Bft) N-NW 327 5 min 0,000 mm 1,2 UV-I 286 W/m 1,1 C 7,2 C 14,5 km/h (3 Bft)
05.03.2015 14:00 7,6 C 64 % 1036,6 hPa 0,0 l/m 4,0 km/h (1 Bft) W-NW 303 5 min 0,127 mm 1,5 UV-I 414 W/m 1,2 C 7,6 C 11,3 km/h (2 Bft)
05.03.2015 14:05 7,4 C 61 % 1036,6 hPa 0,0 l/m 5,8 km/h (2 Bft) N-NW 346 5 min 0,000 mm 1,4 UV-I 662 W/m 0,4 C 7,4 C 12,9 km/h (3 Bft)
05.03.2015 14:10 7,9 C 63 % 1036,4 hPa 0,0 l/m 3,1 km/h (1 Bft) W 270 5 min 0,000 mm 1,2 UV-I 326 W/m 1,3 C 7,9 C 14,5 km/h (3 Bft)
05.03.2015 14:15 7,4 C 62 % 1036,4 hPa 0,0 l/m 6,4 km/h (2 Bft) W-NW 292 5 min 0,000 mm 1,1 UV-I 298 W/m 0,6 C 7,4 C 11,3 km/h (2 Bft)
05.03.2015 14:20 7,2 C 63 % 1036,2 hPa 0,0 l/m 7,0 km/h (2 Bft) W-NW 286 0 min 0,000 mm 1,0 UV-I 198 W/m 0,6 C 6,7 C 12,9 km/h (3 Bft)
05.03.2015 14:25 7,2 C 65 % 1036,3 hPa 0,0 l/m 5,3 km/h (1 Bft) NW 320 0 min 0,000 mm 0,9 UV-I 176 W/m 1,1 C 7,2 C 14,5 km/h (3 Bft)
05.03.2015 14:30 7,4 C 64 % 1036,3 hPa 0,0 l/m 4,4 km/h (1 Bft) NW 313 0 min 0,000 mm 0,9 UV-I 210 W/m 1,0 C 7,4 C 11,3 km/h (2 Bft)
05.03.2015 14:35 7,7 C 64 % 1036,4 hPa 0,0 l/m 1,6 km/h (1 Bft) N 355 0 min 0,000 mm 0,9 UV-I 228 W/m 1,3 C 7,7 C 8,0 km/h (2 Bft)
05.03.2015 14:40 7,8 C 64 % 1036,3 hPa 0,0 l/m 1,4 km/h (1 Bft) N-NO 22 0 min 0,000 mm 0,8 UV-I 162 W/m 1,4 C 7,8 C 8,0 km/h (2 Bft)
05.03.2015 14:45 7,8 C 64 % 1036,2 hPa 0,0 l/m 2,4 km/h (1 Bft) W-NW 291 0 min 0,000 mm 1,0 UV-I 200 W/m 1,4 C 7,8 C 9,7 km/h (2 Bft)
05.03.2015 14:50 7,9 C 64 % 1036,3 hPa 0,0 l/m 0,5 km/h (0 Bft) N-NO 15 5 min 0,000 mm 1,1 UV-I 263 W/m 1,5 C 7,9 C 4,8 km/h (1 Bft)
05.03.2015 14:55 7,9 C 63 % 1036,2 hPa 0,0 l/m 2,3 km/h (1 Bft) W-NW 296 0 min 0,000 mm 1,0 UV-I 242 W/m 1,3 C 7,9 C 8,0 km/h (2 Bft)
05.03.2015 15:00 7,9 C 62 % 1036,3 hPa 0,0 l/m 2,9 km/h (1 Bft) NW 320 0 min 0,127 mm 0,9 UV-I 229 W/m 1,1 C 7,9 C 9,7 km/h (2 Bft)
05.03.2015 15:05 7,7 C 61 % 1036,3 hPa 0,0 l/m 5,2 km/h (1 Bft) W-NW 294 5 min 0,000 mm 0,9 UV-I 237 W/m 0,7 C 7,7 C 12,9 km/h (3 Bft)
05.03.2015 15:10 7,7 C 63 % 1036,2 hPa 0,0 l/m 3,2 km/h (1 Bft) NW 311 5 min 0,000 mm 0,9 UV-I 257 W/m 1,1 C 7,7 C 14,5 km/h (3 Bft)
05.03.2015 15:15 7,8 C 61 % 1036,2 hPa 0,0 l/m 4,2 km/h (1 Bft) NW 316 5 min 0,000 mm 0,9 UV-I 277 W/m 0,8 C 7,8 C 14,5 km/h (3 Bft)
05.03.2015 15:20 7,4 C 63 % 1036,3 hPa 0,0 l/m 6,5 km/h (2 Bft) N-NW 327 0 min 0,000 mm 0,8 UV-I 212 W/m 0,8 C 7,3 C 16,1 km/h (3 Bft)
05.03.2015 15:25 7,4 C 63 % 1036,2 hPa 0,0 l/m 2,5 km/h (1 Bft) W-NW 283 0 min 0,000 mm 0,6 UV-I 151 W/m 0,8 C 7,4 C 11,3 km/h (2 Bft)
05.03.2015 15:30 7,5 C 63 % 1036,2 hPa 0,0 l/m 0,7 km/h (0 Bft) N 360 0 min 0,000 mm 0,6 UV-I 133 W/m 0,9 C 7,5 C 4,8 km/h (1 Bft)
05.03.2015 15:35 7,7 C 63 % 1036,3 hPa 0,0 l/m 1,9 km/h (1 Bft) NO 36 0 min 0,000 mm 0,6 UV-I 140 W/m 1,1 C 7,7 C 9,7 km/h (2 Bft)
05.03.2015 15:40 7,7 C 64 % 1036,3 hPa 0,0 l/m 2,4 km/h (1 Bft) W-NW 300 0 min 0,000 mm 0,7 UV-I 185 W/m 1,3 C 7,7 C 9,7 km/h (2 Bft)
05.03.2015 15:45 7,6 C 62 % 1036,2 hPa 0,0 l/m 4,0 km/h (1 Bft) N 355 5 min 0,000 mm 0,7 UV-I 208 W/m 0,8 C 7,6 C 11,3 km/h (2 Bft)
05.03.2015 15:50 7,7 C 61 % 1036,2 hPa 0,0 l/m 1,9 km/h (1 Bft) N-NW 337 5 min 0,000 mm 0,7 UV-I 201 W/m 0,7 C 7,7 C 8,0 km/h (2 Bft)
05.03.2015 15:55 7,7 C 61 % 1036,2 hPa 0,0 l/m 4,0 km/h (1 Bft) N 360 0 min 0,000 mm 0,6 UV-I 182 W/m 0,7 C 7,7 C 9,7 km/h (2 Bft)
05.03.2015 16:00 7,7 C 61 % 1036,2 hPa 0,0 l/m 2,3 km/h (1 Bft) N 349 0 min 0,101 mm 0,5 UV-I 158 W/m 0,7 C 7,7 C 9,7 km/h (2 Bft)
05.03.2015 16:05 7,8 C 61 % 1036,2 hPa 0,0 l/m 2,0 km/h (1 Bft) N 5 0 min 0,000 mm 0,5 UV-I 150 W/m 0,8 C 7,8 C 8,0 km/h (2 Bft)
05.03.2015 16:10 7,8 C 61 % 1036,1 hPa 0,0 l/m 1,6 km/h (1 Bft) NW 319 0 min 0,000 mm 0,5 UV-I 156 W/m 0,8 C 7,8 C 6,4 km/h (2 Bft)
05.03.2015 16:15 7,8 C 61 % 1036,2 hPa 0,0 l/m 2,1 km/h (1 Bft) W-NW 303 0 min 0,000 mm 0,5 UV-I 146 W/m 0,8 C 7,8 C 8,0 km/h (2 Bft)
05.03.2015 16:20 7,6 C 61 % 1036,2 hPa 0,0 l/m 4,8 km/h (1 Bft) W-NW 290 0 min 0,000 mm 0,5 UV-I 139 W/m 0,6 C 7,6 C 14,5 km/h (3 Bft)
05.03.2015 16:25 7,3 C 62 % 1036,2 hPa 0,0 l/m 3,4 km/h (1 Bft) W-NW 302 0 min 0,000 mm 0,1 UV-I 118 W/m 0,5 C 7,3 C 11,3 km/h (2 Bft)
05.03.2015 16:30 7,3 C 62 % 1036,3 hPa 0,0 l/m 3,3 km/h (1 Bft) W-NW 289 0 min 0,000 mm 0,0 UV-I 116 W/m 0,5 C 7,3 C 11,3 km/h (2 Bft)
05.03.2015 16:35 7,1 C 63 % 1036,3 hPa 0,0 l/m 4,0 km/h (1 Bft) N-NW 346 0 min 0,000 mm 0,0 UV-I 90 W/m 0,5 C 7,1 C 11,3 km/h (2 Bft)
05.03.2015 16:40 7,1 C 64 % 1036,4 hPa 0,0 l/m 2,2 km/h (1 Bft) W-NW 288 0 min 0,000 mm 0,0 UV-I 81 W/m 0,8 C 7,1 C 9,7 km/h (2 Bft)
05.03.2015 16:45 7,1 C 64 % 1036,4 hPa 0,0 l/m 0,6 km/h (0 Bft) W-NW 299 0 min 0,000 mm 0,0 UV-I 64 W/m 0,8 C 7,1 C 4,8 km/h (1 Bft)
05.03.2015 16:50 7,0 C 65 % 1036,4 hPa 0,0 l/m 0,9 km/h (0 Bft) W-NW 300 0 min 0,000 mm 0,0 UV-I 63 W/m 0,9 C 7,0 C 6,4 km/h (2 Bft)
05.03.2015 16:55 7,1 C 65 % 1036,4 hPa 0,0 l/m 0,7 km/h (0 Bft) W-NW 299 0 min 0,000 mm 0,0 UV-I 53 W/m 1,0 C 7,1 C 4,8 km/h (1 Bft)
05.03.2015 17:00 7,0 C 65 % 1036,5 hPa 0,0 l/m 0,3 km/h (0 Bft) NW 312 0 min 0,051 mm 0,0 UV-I 53 W/m 0,9 C 7,0 C 4,8 km/h (1 Bft)
05.03.2015 17:05 7,0 C 65 % 1036,5 hPa 0,0 l/m 1,0 km/h (0 Bft) N-NW 327 0 min 0,000 mm 0,0 UV-I 56 W/m 0,9 C 7,0 C 6,4 km/h (2 Bft)
05.03.2015 17:10 6,9 C 64 % 1036,5 hPa 0,0 l/m 0,8 km/h (0 Bft) NW 313 0 min 0,000 mm 0,0 UV-I 77 W/m 0,6 C 6,9 C 6,4 km/h (2 Bft)
05.03.2015 17:15 6,9 C 64 % 1036,5 hPa 0,0 l/m 0,1 km/h (0 Bft) N 5 0 min 0,000 mm 0,0 UV-I 74 W/m 0,6 C 6,9 C 3,2 km/h (1 Bft)
05.03.2015 17:20 6,9 C 65 % 1036,4 hPa 0,0 l/m 0,0 km/h (0 Bft) N 5 5 min 0,000 mm 0,0 UV-I 75 W/m 0,8 C 6,9 C 0,0 km/h (0 Bft)
05.03.2015 17:25 6,9 C 65 % 1036,5 hPa 0,0 l/m 0,0 km/h (0 Bft) N 5 5 min 0,000 mm 0,0 UV-I 66 W/m 0,8 C 6,9 C 0,0 km/h (0 Bft)
05.03.2015 17:30 6,8 C 65 % 1036,5 hPa 0,0 l/m 0,0 km/h (0 Bft) N 5 0 min 0,000 mm 0,0 UV-I 49 W/m 0,7 C 6,8 C 0,0 km/h (0 Bft)
05.03.2015 17:35 6,8 C 65 % 1036,6 hPa 0,0 l/m 0,0 km/h (0 Bft) N 5 0 min 0,000 mm 0,0 UV-I 31 W/m 0,7 C 6,8 C 1,6 km/h (1 Bft)
05.03.2015 17:40 6,7 C 65 % 1036,6 hPa 0,0 l/m 0,0 km/h (0 Bft) N 5 0 min 0,000 mm 0,0 UV-I 19 W/m 0,6 C 6,7 C 1,6 km/h (1 Bft)
05.03.2015 17:45 6,6 C 67 % 1036,5 hPa 0,0 l/m 0,0 km/h (0 Bft) N 5 0 min 0,000 mm 0,0 UV-I 13 W/m 0,9 C 6,6 C 0,0 km/h (0 Bft)
05.03.2015 17:50 6,5 C 66 % 1036,5 hPa 0,0 l/m 0,0 km/h (0 Bft) N 5 0 min 0,000 mm 0,0 UV-I 11 W/m 0,6 C 6,5 C 0,0 km/h (0 Bft)
05.03.2015 17:55 6,4 C 68 % 1036,6 hPa 0,0 l/m 0,0 km/h (0 Bft) N 5 0 min 0,000 mm 0,0 UV-I 9 W/m 0,9 C 6,4 C 0,0 km/h (0 Bft)
05.03.2015 18:00 6,2 C 68 % 1036,6 hPa 0,0 l/m 0,0 km/h (0 Bft) N 5 0 min 0,025 mm 0,0 UV-I 7 W/m 0,7 C 6,2 C 0,0 km/h (0 Bft)
05.03.2015 18:05 6,1 C 69 % 1036,7 hPa 0,0 l/m 0,0 km/h (0 Bft) N 5 0 min 0,000 mm 0,0 UV-I 5 W/m 0,8 C 6,1 C 0,0 km/h (0 Bft)
05.03.2015 18:10 5,9 C 69 % 1036,7 hPa 0,0 l/m 0,0 km/h (0 Bft) N 5 0 min 0,000 mm 0,0 UV-I 2 W/m 0,7 C 5,9 C 0,0 km/h (0 Bft)
05.03.2015 18:15 5,8 C 69 % 1036,9 hPa 0,0 l/m 0,0 km/h (0 Bft) N 5 0 min 0,000 mm 0,0 UV-I 0 W/m 0,6 C 5,8 C 0,0 km/h (0 Bft)
05.03.2015 18:20 5,7 C 70 % 1036,9 hPa 0,0 l/m 0,0 km/h (0 Bft) N 5 0 min 0,000 mm 0,0 UV-I 0 W/m 0,7 C 5,7 C 0,0 km/h (0 Bft)
05.03.2015 18:25 5,5 C 70 % 1037,0 hPa 0,0 l/m 0,0 km/h (0 Bft) N 5 0 min 0,000 mm 0,0 UV-I 0 W/m 0,5 C 5,5 C 0,0 km/h (0 Bft)
05.03.2015 18:30 5,3 C 71 % 1037,0 hPa 0,0 l/m 0,0 km/h (0 Bft) N 5 0 min 0,000 mm 0,0 UV-I 0 W/m 0,5 C 5,3 C 0,0 km/h (0 Bft)
05.03.2015 18:35 5,2 C 71 % 1036,9 hPa 0,0 l/m 0,0 km/h (0 Bft) N 5 0 min 0,000 mm 0,0 UV-I 0 W/m 0,4 C 5,2 C 0,0 km/h (0 Bft)
05.03.2015 18:40 5,0 C 72 % 1036,9 hPa 0,0 l/m 0,0 km/h (0 Bft) N 5 0 min 0,000 mm 0,0 UV-I 0 W/m 0,4 C 5,0 C 0,0 km/h (0 Bft)
05.03.2015 18:45 4,8 C 73 % 1036,9 hPa 0,0 l/m 0,0 km/h (0 Bft) N 5 0 min 0,000 mm 0,0 UV-I 0 W/m 0,4 C 4,8 C 0,0 km/h (0 Bft)
05.03.2015 18:50 4,7 C 74 % 1037,0 hPa 0,0 l/m 0,0 km/h (0 Bft) N 5 0 min 0,000 mm 0,0 UV-I 0 W/m 0,5 C 4,7 C 0,0 km/h (0 Bft)
05.03.2015 18:55 4,7 C 75 % 1036,9 hPa 0,0 l/m 0,0 km/h (0 Bft) N 5 0 min 0,000 mm 0,0 UV-I 0 W/m 0,7 C 4,7 C 0,0 km/h (0 Bft)
05.03.2015 19:00 4,6 C 75 % 1037,0 hPa 0,0 l/m 0,0 km/h (0 Bft) N 5 0 min 0,000 mm 0,0 UV-I 0 W/m 0,6 C 4,6 C 0,0 km/h (0 Bft)
05.03.2015 19:05 4,4 C 76 % 1037,0 hPa 0,0 l/m 0,0 km/h (0 Bft) N 5 0 min 0,000 mm 0,0 UV-I 0 W/m 0,5 C 4,4 C 0,0 km/h (0 Bft)
05.03.2015 19:10 4,4 C 76 % 1037,1 hPa 0,0 l/m 0,0 km/h (0 Bft) N 5 0 min 0,000 mm 0,0 UV-I 0 W/m 0,5 C 4,4 C 0,0 km/h (0 Bft)
05.03.2015 19:15 4,3 C 76 % 1037,0 hPa 0,0 l/m 0,0 km/h (0 Bft) N 5 0 min 0,000 mm 0,0 UV-I 0 W/m 0,5 C 4,3 C 0,0 km/h (0 Bft)
05.03.2015 19:20 4,2 C 77 % 1037,0 hPa 0,0 l/m 0,0 km/h (0 Bft) N 5 0 min 0,000 mm 0,0 UV-I 0 W/m 0,5 C 4,2 C 0,0 km/h (0 Bft)
05.03.2015 19:25 4,1 C 77 % 1037,0 hPa 0,0 l/m 0,0 km/h (0 Bft) N 5 0 min 0,000 mm 0,0 UV-I 0 W/m 0,4 C 4,1 C 0,0 km/h (0 Bft)
05.03.2015 19:30 3,9 C 78 % 1037,1 hPa 0,0 l/m 0,0 km/h (0 Bft) N 5 0 min 0,000 mm 0,0 UV-I 0 W/m 0,4 C 3,9 C 0,0 km/h (0 Bft)
05.03.2015 19:35 3,8 C 78 % 1037,1 hPa 0,0 l/m 0,0 km/h (0 Bft) N 5 0 min 0,000 mm 0,0 UV-I 0 W/m 0,3 C 3,8 C 0,0 km/h (0 Bft)
05.03.2015 19:40 3,7 C 78 % 1037,1 hPa 0,0 l/m 0,0 km/h (0 Bft) N 5 0 min 0,000 mm 0,0 UV-I 0 W/m 0,2 C 3,7 C 0,0 km/h (0 Bft)
05.03.2015 19:45 3,6 C 78 % 1037,1 hPa 0,0 l/m 0,0 km/h (0 Bft) N 5 0 min 0,000 mm 0,0 UV-I 0 W/m 0,1 C 3,6 C 0,0 km/h (0 Bft)
05.03.2015 19:50 3,6 C 79 % 1037,1 hPa 0,0 l/m 0,0 km/h (0 Bft) N 5 0 min 0,000 mm 0,0 UV-I 0 W/m 0,3 C 3,6 C 0,0 km/h (0 Bft)
05.03.2015 19:55 3,4 C 79 % 1037,2 hPa 0,0 l/m 0,0 km/h (0 Bft) N 5 0 min 0,000 mm 0,0 UV-I 0 W/m 0,1 C 3,4 C 0,0 km/h (0 Bft)
05.03.2015 20:00 3,3 C 79 % 1037,1 hPa 0,0 l/m 0,0 km/h (0 Bft) N 5 0 min 0,000 mm 0,0 UV-I 0 W/m 0,0 C 3,3 C 0,0 km/h (0 Bft)
05.03.2015 20:05 3,2 C 79 % 1037,3 hPa 0,0 l/m 0,0 km/h (0 Bft) N 5 0 min 0,000 mm 0,0 UV-I 0 W/m -0,1 C 3,2 C 0,0 km/h (0 Bft)
05.03.2015 20:10 3,2 C 79 % 1037,3 hPa 0,0 l/m 0,0 km/h (0 Bft) N 5 0 min 0,000 mm 0,0 UV-I 0 W/m -0,1 C 3,2 C 0,0 km/h (0 Bft)
05.03.2015 20:15 3,1 C 80 % 1037,2 hPa 0,0 l/m 0,0 km/h (0 Bft) N 5 0 min 0,000 mm 0,0 UV-I 0 W/m -0,0 C 3,1 C 0,0 km/h (0 Bft)
05.03.2015 20:20 2,9 C 80 % 1037,3 hPa 0,0 l/m 0,0 km/h (0 Bft) N 5 0 min 0,000 mm 0,0 UV-I 0 W/m -0,2 C 2,9 C 0,0 km/h (0 Bft)
05.03.2015 20:25 2,9 C 80 % 1037,4 hPa 0,0 l/m 0,0 km/h (0 Bft) N 5 0 min 0,000 mm 0,0 UV-I 0 W/m -0,2 C 2,9 C 0,0 km/h (0 Bft)
05.03.2015 20:30 2,8 C 81 % 1037,4 hPa 0,0 l/m 0,0 km/h (0 Bft) N 5 0 min 0,000 mm 0,0 UV-I 0 W/m -0,1 C 2,8 C 0,0 km/h (0 Bft)
05.03.2015 20:35 2,7 C 81 % 1037,3 hPa 0,0 l/m 0,0 km/h (0 Bft) N 5 0 min 0,000 mm 0,0 UV-I 0 W/m -0,2 C 2,7 C 0,0 km/h (0 Bft)
05.03.2015 20:40 2,7 C 82 % 1037,2 hPa 0,0 l/m 0,0 km/h (0 Bft) N 5 0 min 0,000 mm 0,0 UV-I 0 W/m -0,1 C 2,7 C 0,0 km/h (0 Bft)
05.03.2015 20:45 2,6 C 82 % 1037,1 hPa 0,0 l/m 0,0 km/h (0 Bft) N 5 0 min 0,000 mm 0,0 UV-I 0 W/m -0,2 C 2,6 C 0,0 km/h (0 Bft)
05.03.2015 20:50 2,5 C 82 % 1037,1 hPa 0,0 l/m 0,0 km/h (0 Bft) N 5 0 min 0,000 mm 0,0 UV-I 0 W/m -0,3 C 2,5 C 0,0 km/h (0 Bft)
05.03.2015 20:55 2,5 C 83 % 1037,1 hPa 0,0 l/m 0,0 km/h (0 Bft) N 5 0 min 0,000 mm 0,0 UV-I 0 W/m -0,1 C 2,5 C 0,0 km/h (0 Bft)
05.03.2015 21:00 2,5 C 83 % 1037,0 hPa 0,0 l/m 0,0 km/h (0 Bft) N 5 0 min 0,000 mm 0,0 UV-I 0 W/m -0,1 C 2,5 C 0,0 km/h (0 Bft)
05.03.2015 21:05 2,5 C 83 % 1037,1 hPa 0,0 l/m 0,0 km/h (0 Bft) N 5 0 min 0,000 mm 0,0 UV-I 0 W/m -0,1 C 2,5 C 0,0 km/h (0 Bft)
05.03.2015 21:10 2,4 C 83 % 1037,1 hPa 0,0 l/m 0,0 km/h (0 Bft) N 5 0 min 0,000 mm 0,0 UV-I 0 W/m -0,2 C 2,4 C 0,0 km/h (0 Bft)
05.03.2015 21:15 2,3 C 83 % 1037,2 hPa 0,0 l/m 0,0 km/h (0 Bft) N 5 0 min 0,000 mm 0,0 UV-I 0 W/m -0,3 C 2,3 C 0,0 km/h (0 Bft)
05.03.2015 21:20 2,3 C 83 % 1037,1 hPa 0,0 l/m 0,0 km/h (0 Bft) N 5 0 min 0,000 mm 0,0 UV-I 0 W/m -0,3 C 2,3 C 0,0 km/h (0 Bft)
05.03.2015 21:25 2,2 C 84 % 1037,2 hPa 0,0 l/m 0,0 km/h (0 Bft) N 5 0 min 0,000 mm 0,0 UV-I 0 W/m -0,2 C 2,2 C 0,0 km/h (0 Bft)
05.03.2015 21:30 2,2 C 84 % 1037,3 hPa 0,0 l/m 0,0 km/h (0 Bft) N 5 0 min 0,000 mm 0,0 UV-I 0 W/m -0,2 C 2,2 C 0,0 km/h (0 Bft)
05.03.2015 21:35 2,2 C 84 % 1037,4 hPa 0,0 l/m 0,0 km/h (0 Bft) N 5 0 min 0,000 mm 0,0 UV-I 0 W/m -0,2 C 2,2 C 0,0 km/h (0 Bft)
05.03.2015 21:40 2,2 C 84 % 1037,4 hPa 0,0 l/m 0,0 km/h (0 Bft) N 5 0 min 0,000 mm 0,0 UV-I 0 W/m -0,2 C 2,2 C 0,0 km/h (0 Bft)
05.03.2015 21:45 2,2 C 84 % 1037,5 hPa 0,0 l/m 0,0 km/h (0 Bft) N 5 0 min 0,000 mm 0,0 UV-I 0 W/m -0,2 C 2,2 C 0,0 km/h (0 Bft)
05.03.2015 21:50 2,1 C 84 % 1037,5 hPa 0,0 l/m 0,0 km/h (0 Bft) N 5 0 min 0,000 mm 0,0 UV-I 0 W/m -0,3 C 2,1 C 0,0 km/h (0 Bft)
05.03.2015 21:55 2,1 C 84 % 1037,5 hPa 0,0 l/m 0,0 km/h (0 Bft) N 5 0 min 0,000 mm 0,0 UV-I 0 W/m -0,3 C 2,1 C 0,0 km/h (0 Bft)
05.03.2015 22:00 2,0 C 84 % 1037,5 hPa 0,0 l/m 0,0 km/h (0 Bft) N 5 0 min 0,000 mm 0,0 UV-I 0 W/m -0,4 C 2,0 C 0,0 km/h (0 Bft)
05.03.2015 22:05 1,9 C 85 % 1037,5 hPa 0,0 l/m 0,0 km/h (0 Bft) N 5 0 min 0,000 mm 0,0 UV-I 0 W/m -0,3 C 1,9 C 0,0 km/h (0 Bft)
05.03.2015 22:10 1,8 C 84 % 1037,4 hPa 0,0 l/m 0,0 km/h (0 Bft) N 5 0 min 0,000 mm 0,0 UV-I 0 W/m -0,6 C 1,8 C 0,0 km/h (0 Bft)
05.03.2015 22:15 1,7 C 85 % 1037,5 hPa 0,0 l/m 0,0 km/h (0 Bft) N 5 0 min 0,000 mm 0,0 UV-I 0 W/m -0,5 C 1,7 C 0,0 km/h (0 Bft)
05.03.2015 22:20 1,6 C 84 % 1037,5 hPa 0,0 l/m 0,0 km/h (0 Bft) N 5 0 min 0,000 mm 0,0 UV-I 0 W/m -0,8 C 1,6 C 0,0 km/h (0 Bft)
05.03.2015 22:25 1,6 C 85 % 1037,5 hPa 0,0 l/m 0,0 km/h (0 Bft) N 5 0 min 0,000 mm 0,0 UV-I 0 W/m -0,6 C 1,6 C 0,0 km/h (0 Bft)
05.03.2015 22:30 1,4 C 85 % 1037,5 hPa 0,0 l/m 0,0 km/h (0 Bft) N 5 0 min 0,000 mm 0,0 UV-I 0 W/m -0,8 C 1,4 C 0,0 km/h (0 Bft)
05.03.2015 22:35 1,3 C 85 % 1037,6 hPa 0,0 l/m 0,0 km/h (0 Bft) N 5 0 min 0,000 mm 0,0 UV-I 0 W/m -0,9 C 1,3 C 0,0 km/h (0 Bft)
05.03.2015 22:40 1,2 C 85 % 1037,6 hPa 0,0 l/m 0,0 km/h (0 Bft) N 5 0 min 0,000 mm 0,0 UV-I 0 W/m -1,0 C 1,2 C 0,0 km/h (0 Bft)
05.03.2015 22:45 1,1 C 87 % 1037,7 hPa 0,0 l/m 0,0 km/h (0 Bft) N 5 0 min 0,000 mm 0,0 UV-I 0 W/m -0,8 C 1,1 C 0,0 km/h (0 Bft)
05.03.2015 22:50 0,9 C 86 % 1037,7 hPa 0,0 l/m 0,0 km/h (0 Bft) N 5 0 min 0,000 mm 0,0 UV-I 0 W/m -1,2 C 0,9 C 0,0 km/h (0 Bft)
05.03.2015 22:55 0,8 C 87 % 1037,7 hPa 0,0 l/m 0,0 km/h (0 Bft) N 5 0 min 0,000 mm 0,0 UV-I 0 W/m -1,1 C 0,8 C 0,0 km/h (0 Bft)
05.03.2015 23:00 0,7 C 86 % 1037,7 hPa 0,0 l/m 0,0 km/h (0 Bft) N 5 0 min 0,000 mm 0,0 UV-I 0 W/m -1,4 C 0,7 C 0,0 km/h (0 Bft)
05.03.2015 23:05 0,6 C 87 % 1037,6 hPa 0,0 l/m 0,0 km/h (0 Bft) N 5 0 min 0,000 mm 0,0 UV-I 0 W/m -1,3 C 0,6 C 0,0 km/h (0 Bft)
05.03.2015 23:10 0,6 C 87 % 1037,6 hPa 0,0 l/m 0,0 km/h (0 Bft) N 5 0 min 0,000 mm 0,0 UV-I 0 W/m -1,3 C 0,6 C 0,0 km/h (0 Bft)
05.03.2015 23:15 0,6 C 87 % 1037,5 hPa 0,0 l/m 0,0 km/h (0 Bft) N 5 0 min 0,000 mm 0,0 UV-I 0 W/m -1,3 C 0,6 C 0,0 km/h (0 Bft)
05.03.2015 23:20 0,5 C 87 % 1037,5 hPa 0,0 l/m 0,0 km/h (0 Bft) N 5 0 min 0,000 mm 0,0 UV-I 0 W/m -1,4 C 0,5 C 0,0 km/h (0 Bft)
05.03.2015 23:25 0,4 C 88 % 1037,4 hPa 0,0 l/m 0,0 km/h (0 Bft) N 5 0 min 0,000 mm 0,0 UV-I 0 W/m -1,3 C 0,4 C 0,0 km/h (0 Bft)
05.03.2015 23:30 0,4 C 88 % 1037,5 hPa 0,0 l/m 0,0 km/h (0 Bft) N 5 0 min 0,000 mm 0,0 UV-I 0 W/m -1,3 C 0,4 C 0,0 km/h (0 Bft)
05.03.2015 23:35 0,4 C 88 % 1037,6 hPa 0,0 l/m 0,0 km/h (0 Bft) N 5 0 min 0,000 mm 0,0 UV-I 0 W/m -1,3 C 0,4 C 0,0 km/h (0 Bft)
05.03.2015 23:40 0,4 C 88 % 1037,5 hPa 0,0 l/m 0,0 km/h (0 Bft) N 5 0 min 0,000 mm 0,0 UV-I 0 W/m -1,3 C 0,4 C 0,0 km/h (0 Bft)
05.03.2015 23:45 0,5 C 89 % 1037,4 hPa 0,0 l/m 0,0 km/h (0 Bft) N 5 0 min 0,000 mm 0,0 UV-I 0 W/m -1,1 C 0,5 C 0,0 km/h (0 Bft)
05.03.2015 23:50 0,5 C 89 % 1037,3 hPa 0,0 l/m 0,0 km/h (0 Bft) N 5 0 min 0,000 mm 0,0 UV-I 0 W/m -1,1 C 0,5 C 0,0 km/h (0 Bft)
05.03.2015 23:55 0,5 C 89 % 1037,4 hPa 0,0 l/m 0,0 km/h (0 Bft) N 5 0 min 0,000 mm 0,0 UV-I 0 W/m -1,1 C 0,5 C 0,0 km/h (0 Bft)
_ Min-Zeit 23:25 14:05 00:00 - 02:50 - - - - - - 23:20 00:20 03:00
Minimum _ 0,4 C 61 % 1029,7 hPa - 0,0 km/h (0 Bft) - - - - - - -1,4 C -2,5 C 0,0 km/h (0 Bft)
_ Max-Zeit 14:55 00:00 22:45 00:00 00:20 - - 08:20 12:00 12:05 14:05 13:45 14:10 00:25
Maximum _ 8,0 C 89 % 1037,7 hPa 0,0 l/m 13,5 km/h
NW (3 Bft)
- - 5 min 0,204 mm 1,9 UV-I 662 W/m 1,7 C 7,9 C 37,0 km/h
W (5 Bft)
Durchschnitt _ 3,9 C 78 % 1035,5 hPa #0,0 l/m 2,1 km/h (1 Bft) W-NW - #3:25 h #1,041 mm 1,0 UV-I 191 W/m 0,3 C 3,7 C 6,5 km/h (2 Bft)